H1 CPF 2 NER 2022 8 29 9 241 01 glonass106 H2 0705201 9106 32275 2022 8 29 0 0 0 2022 9 1 23 45 0 900 1 1 0 0 0 1 H9 10 0 59820 0.00000 0 -14098879.979 3650589.029 20933915.654 10 0 59820 900.00000 0 -16431722.723 2776189.312 19302713.230 10 0 59820 1800.00000 0 -18613648.935 2156425.341 17296306.257 10 0 59820 2700.00000 0 -20579038.186 1776538.529 14953658.223 10 0 59820 3600.00000 0 -22268270.638 1609904.537 12320283.052 10 0 59820 4500.00000 0 -23630107.464 1619380.751 9447360.983 10 0 59820 5400.00000 0 -24623737.522 1759104.809 6390742.259 10 0 59820 6300.00000 0 -25220404.261 1976667.442 3209858.057 10 0 59820 7200.00000 0 -25404544.299 2215566.906 -33439.779 10 0 59820 8100.00000 0 -25174389.777 2417840.168 -3276087.061 10 0 59820 9000.00000 0 -24542009.213 2526758.430 -6455039.447 10 0 59820 9900.00000 0 -23532785.386 2489471.862 -9508503.612 10 0 59820 10800.00000 0 -22184352.668 2259490.591 -12377142.758 10 0 59820 11700.00000 0 -20545039.020 1798896.068 -15005232.416 10 0 59820 12600.00000 0 -18671878.768 1080188.615 -17341743.638 10 0 59820 13500.00000 0 -16628280.136 87692.448 -19341332.491 10 0 59820 14400.00000 0 -14481445.723 -1181541.617 -20965216.883 10 0 59820 15300.00000 0 -12299654.194 -2717374.270 -22181924.126 10 0 59820 16200.00000 0 -10149516.732 -4496772.378 -22967895.471 10 0 59820 17100.00000 0 -8093322.430 -6484552.683 -23307936.660 10 0 59820 18000.00000 0 -6186582.736 -8634644.011 -23195506.531 10 0 59820 18900.00000 0 -4475876.342 -10891816.021 -22632838.749 10 0 59820 19800.00000 0 -2997083.176 -13193803.237 -21630894.781 10 0 59820 20700.00000 0 -1774079.871 -15473736.537 -20209149.275 10 0 59820 21600.00000 0 -817949.756 -17662781.724 -18395211.992 10 0 59820 22500.00000 0 -126739.015 -19692875.989 -16224293.372 10 0 59820 23400.00000 0 314231.979 -21499448.850 -13738523.744 10 0 59820 24300.00000 0 531516.334 -23024014.693 -10986138.871 10 0 59820 25200.00000 0 562184.024 -24216529.060 -8020547.117 10 0 59820 26100.00000 0 452018.777 -25037410.473 -4899295.969 10 0 59820 27000.00000 0 253345.051 -25459143.324 -1682957.642 10 0 59820 27900.00000 0 22577.259 -25467394.740 1566044.793 10 0 59820 28800.00000 0 -182404.866 -25061598.482 4784647.876 10 0 59820 29700.00000 0 -304943.419 -24254981.300 7910371.265 10 0 59820 30600.00000 0 -292237.966 -23074030.430 10882530.362 10 0 59820 31500.00000 0 -97817.822 -21557424.400 13643414.240 10 0 59820 32400.00000 0 316254.100 -19754471.740 16139405.931 10 0 59820 33300.00000 0 977539.613 -17723122.784 18322023.280 10 0 59820 34200.00000 0 1901824.232 -15527637.559 20148860.170 10 0 59820 35100.00000 0 3092216.838 -13236006.970 21584410.044 10 0 59820 36000.00000 0 4538789.061 -10917234.661 22600755.972 10 0 59820 36900.00000 0 6218770.790 -8638592.636 23178114.052 10 0 59820 37800.00000 0 8097295.028 -6462964.644 23305219.811 10 0 59820 38700.00000 0 10128662.359 -4446387.515 22979550.138 10 0 59820 39600.00000 0 12258073.481 -2635892.491 22207376.327 10 0 59820 40500.00000 0 14423758.679 -1067735.911 21003646.950 10 0 59820 41400.00000 0 16559416.388 233907.530 19391702.336 10 0 59820 42300.00000 0 18596859.685 1257734.951 17402825.700 10 0 59820 43200.00000 0 20468760.686 2005556.552 15075639.013 10 0 59820 44100.00000 0 22111378.269 2491978.609 12455354.781 10 0 59820 45000.00000 0 23467154.827 2743542.261 9592897.901 10 0 59820 45900.00000 0 24487073.001 2797355.208 6543914.449 10 0 59820 46800.00000 0 25132673.092 2699274.961 3367686.687 10 0 59820 47700.00000 0 25377645.987 2501721.314 125975.793 10 0 59820 48600.00000 0 25208934.253 2261211.615 -3118184.643 10 0 59820 49500.00000 0 24627294.836 2035724.205 -6301720.207 10 0 59820 50400.00000 0 23647299.624 1882002.724 -9362747.454 10 0 59820 51300.00000 0 22296773.925 1852916.393 -12241781.272 10 0 59820 52200.00000 0 20615696.752 1994988.935 -14882893.700 10 0 59820 53100.00000 0 18654609.478 2346201.361 -17234801.245 10 0 59820 54000.00000 0 16472600.006 2934162.088 -19251859.495 10 0 59820 54900.00000 0 14134947.234 3774722.094 -20894945.939 10 0 59820 55800.00000 0 11710524.542 4871093.842 -22132214.258 10 0 59820 56700.00000 0 9269070.720 6213511.406 -22939706.176 10 0 59820 57600.00000 0 6878441.816 7779446.516 -23301809.764 10 0 59820 58500.00000 0 4601957.867 9534371.881 -23211556.085 10 0 59820 59400.00000 0 2495954.077 11433040.432 -22670749.124 10 0 59820 60300.00000 0 607637.214 13421227.705 -21689926.974 10 0 59820 61200.00000 0 -1026664.757 15437865.235 -20288155.295 10 0 59820 62100.00000 0 -2382788.356 17417476.702 -18492657.067 10 0 59820 63000.00000 0 -3449503.392 19292815.886 -16338285.579 10 0 59820 63900.00000 0 -4228734.118 20997596.863 -13866850.510 10 0 59820 64800.00000 0 -4735224.806 22469202.989 -11126309.692 10 0 59820 65700.00000 0 -4995664.886 23651261.765 -8169841.673 10 0 59820 66600.00000 0 -5047311.325 24495978.012 -5054816.738 10 0 59820 67500.00000 0 -4936167.032 24966127.702 -1841685.995 10 0 59820 68400.00000 0 -4714792.705 25036628.734 1407190.097 10 0 59820 69300.00000 0 -4439844.976 24695622.519 4628750.956 10 0 59820 70200.00000 0 -4169445.303 23945020.657 7760459.296 10 0 59820 71100.00000 0 -3960491.229 22800493.363 10741514.849 10 0 59820 72000.00000 0 -3866024.042 21290899.696 13514034.552 10 0 59820 72900.00000 0 -3932764.548 19457183.002 16024176.176 10 0 59820 73800.00000 0 -4198921.538 17350777.377 18223183.572 10 0 59820 74700.00000 0 -4692366.030 15031591.365 20068333.197 10 0 59820 75600.00000 0 -5429248.994 12565652.651 21523763.791 10 0 59820 76500.00000 0 -6413121.642 10022511.548 22561173.278 10 0 59820 77400.00000 0 -7634596.270 7472511.047 23160369.574 10 0 59820 78300.00000 0 -9071563.067 4984036.602 23309664.829 10 0 59820 79200.00000 0 -10689955.028 2620859.524 23006105.482 10 0 59820 80100.00000 0 -12445030.153 439684.051 22255533.571 10 0 59820 81000.00000 0 -14283118.466 -1512000.455 21072477.876 10 0 59820 81900.00000 0 -16143761.807 -3197673.357 19479876.526 10 0 59820 82800.00000 0 -17962157.654 -4593070.113 17508635.955 10 0 59820 83700.00000 0 -19671805.255 -5686950.132 15197034.171 10 0 59820 84600.00000 0 -21207243.543 -6481313.782 12589979.335 10 0 59820 85500.00000 0 -22506765.965 -6991060.196 9738137.694 10 0 59821 0.00000 0 -23514997.996 -7243101.198 6696947.851 10 0 59821 900.00000 0 -24185229.073 -7274969.713 3525538.858 10 0 59821 1800.00000 0 -24481399.027 -7132982.067 285577.708 10 0 59821 2700.00000 0 -24379656.666 -6870033.398 -2959936.357 10 0 59821 3600.00000 0 -23869422.938 -6543120.119 -6147902.466 10 0 59821 4500.00000 0 -22953914.132 -6210695.535 -9216350.498 10 0 59821 5400.00000 0 -21650102.760 -5929971.589 -12105650.211 10 0 59821 6300.00000 0 -19988117.707 -5754281.818 -14759673.046 10 0 59821 7200.00000 0 -18010108.933 -5730617.847 -17126883.485 10 0 59821 8100.00000 0 -15768624.538 -5897444.070 -19161338.711 10 0 59821 9000.00000 0 -13324568.276 -6282883.238 -20823577.359 10 0 59821 9900.00000 0 -10744823.069 -6903349.630 -22081380.456 10 0 59821 10800.00000 0 -8099639.626 -7762687.598 -22910390.562 10 0 59821 11700.00000 0 -5459898.666 -8851851.826 -23294577.833 10 0 59821 12600.00000 0 -2894360.253 -10149142.940 -23226544.748 10 0 59821 13500.00000 0 -467013.786 -11620988.881 -22707664.300 10 0 59821 14400.00000 0 1765362.234 -13223239.759 -21748049.482 10 0 59821 15300.00000 0 3755330.383 -14902922.487 -20366354.902 10 0 59821 16200.00000 0 5466527.205 -16600382.399 -18589414.445 10 0 59821 17100.00000 0 6874928.117 -18251722.934 -16451721.738 10 0 59821 18000.00000 0 7969592.904 -19791441.867 -13994763.167 10 0 59821 18900.00000 0 8752862.080 -21155154.280 -11266215.882 10 0 59821 19800.00000 0 9239997.104 -22282288.604 -8319025.826 10 0 59821 20700.00000 0 9458280.611 -23118642.905 -5210383.286 10 0 59821 21600.00000 0 9445615.405 -23618694.205 -2000615.504 10 0 59821 22500.00000 0 9248681.980 -23747563.757 1247982.354 10 0 59821 23400.00000 0 8920732.822 -23482555.367 4472355.125 10 0 59821 24300.00000 0 8519117.151 -22814201.714 7609910.967 10 0 59821 25200.00000 0 8102641.037 -21746774.101 10599736.133 10 0 59821 26100.00000 0 7728874.825 -20298233.641 13383777.384 10 0 59821 27000.00000 0 7451521.957 -18499625.182 15907968.943 10 0 59821 27900.00000 0 7317960.687 -16393938.658 18123282.098 10 0 59821 28800.00000 0 7367062.837 -14034484.813 19986677.036 10 0 59821 29700.00000 0 7627382.018 -11482852.438 21461938.639 10 0 59821 30600.00000 0 8115788.252 -8806531.618 22520380.234 10 0 59821 31500.00000 0 8836607.101 -6076301.395 23141401.813 10 0 59821 32400.00000 0 9781300.334 -3363489.892 23312892.125 10 0 59821 33300.00000 0 10928702.469 -737220.126 23031466.896 10 0 59821 34200.00000 0 12245804.250 1738244.513 22302538.428 10 0 59821 35100.00000 0 13689051.217 4005945.448 21140215.040 10 0 59821 36000.00000 0 15206103.897 6018363.684 19567031.825 10 0 59821 36900.00000 0 16737986.572 7739155.819 17613517.435 10 0 59821 37800.00000 0 18221535.126 9144419.612 15317604.744 10 0 59821 38700.00000 0 19592041.593 10223436.945 12723896.210 10 0 59821 39600.00000 0 20785984.353 10978863.790 9882797.859 10 0 59821 40500.00000 0 21743729.001 11426360.082 6849538.451 10 0 59821 41400.00000 0 22412085.822 11593676.018 3683092.892 10 0 59821 42300.00000 0 22746615.542 11519234.225 445031.180 10 0 59821 43200.00000 0 22713585.503 11250268.766 -2801684.224 10 0 59821 44100.00000 0 22291493.156 10840600.706 -5993928.552 10 0 59821 45000.00000 0 21472091.992 10348145.427 -9069647.569 10 0 59821 45900.00000 0 20260876.224 9832258.200 -11969068.439 10 0 59821 46800.00000 0 18677003.443 9351031.255 -14635864.399 10 0 59821 47700.00000 0 16752658.295 8958657.408 -17018250.148 10 0 59821 48600.00000 0 14531883.784 8702972.226 -19069986.539 10 0 59821 49500.00000 0 12068929.051 8623278.818 -20751275.239 10 0 59821 50400.00000 0 9426182.714 8748547.135 -22029526.374 10 0 59821 51300.00000 0 6671777.827 9096063.601 -22879984.943 10 0 59821 52200.00000 0 3876967.885 9670587.794 -23286204.621 10 0 59821 53100.00000 0 1113382.637 10464051.494 -23240360.519 10 0 59821 54000.00000 0 -1549723.028 11455812.693 -22743395.586 10 0 59821 54900.00000 0 -4048113.796 12613454.007 -21804998.294 10 0 59821 55800.00000 0 -6325003.453 13894092.186 -20443412.372 10 0 59821 56700.00000 0 -8333169.580 15246144.227 -18685082.310 10 0 59821 57600.00000 0 -10036666.808 16611476.493 -16564141.292 10 0 59821 58500.00000 0 -11412068.594 17927847.228 -14121751.161 10 0 59821 59400.00000 0 -12449187.072 19131540.478 -11405306.706 10 0 59821 60300.00000 0 -13151242.138 20160081.284 -8467519.183 10 0 59821 61200.00000 0 -13534473.747 20954918.301 -5365396.463 10 0 59821 62100.00000 0 -13627214.712 21463961.197 -2159139.221 10 0 59821 63000.00000 0 -13468463.804 21643865.972 1089025.602 10 0 59821 63900.00000 0 -13106019.897 21461971.742 4316051.376 10 0 59821 64800.00000 0 -12594256.412 20897806.991 7459294.919 10 0 59821 65700.00000 0 -11991630.411 19944101.268 10457732.293 10 0 59821 66600.00000 0 -11358031.848 18607259.034 13253143.353 10 0 59821 67500.00000 0 -10752085.210 16907274.882 15791241.973 10 0 59821 68400.00000 0 -10228517.680 14877092.716 18022729.946 10 0 59821 69300.00000 0 -9835705.091 12561434.829 19904254.037 10 0 59821 70200.00000 0 -9613499.376 10015148.822 21399247.860 10 0 59821 71100.00000 0 -9591429.323 7301140.394 22478642.396 10 0 59821 72000.00000 0 -9787350.701 4487977.305 23121431.582 10 0 59821 72900.00000 0 -10206603.000 1647263.346 23315082.208 10 0 59821 73800.00000 0 -10841708.770 -1149109.360 23055780.216 10 0 59821 74700.00000 0 -11672628.837 -3831716.171 22348508.581 10 0 59821 75600.00000 0 -12667563.381 -6336250.111 21206954.998 10 0 59821 76500.00000 0 -13784265.989 -8605956.890 19653250.765 10 0 59821 77400.00000 0 -14971816.105 -10593753.994 17717545.418 10 0 59821 78300.00000 0 -16172775.989 -12263946.188 15437424.797 10 0 59821 79200.00000 0 -17325641.799 -13593466.443 12857183.247 10 0 59821 80100.00000 0 -18367485.797 -14572591.015 10026963.725 10 0 59821 81000.00000 0 -19236678.238 -15205099.439 7001782.233 10 0 59821 81900.00000 0 -19875573.846 -15507873.558 3840455.519 10 0 59821 82800.00000 0 -20233048.972 -15509953.307 604453.233 10 0 59821 83700.00000 0 -20266781.636 -15251090.092 -2643302.664 10 0 59821 84600.00000 0 -19945177.429 -14779859.863 -5839667.221 10 0 59821 85500.00000 0 -19248859.239 -14151416.698 -8922505.766 10 0 59822 0.00000 0 -18171657.338 -13424982.970 -11831906.143 10 0 59822 900.00000 0 -16721056.895 -12661182.773 -14511347.254 10 0 59822 1800.00000 0 -14918085.150 -11919333.046 -16908796.781 10 0 59822 2700.00000 0 -12796640.669 -11254806.140 -18977721.895 10 0 59822 3600.00000 0 -10402293.889 -10716576.362 -20677989.470 10 0 59822 4500.00000 0 -7790608.381 -10345053.630 -21976640.331 10 0 59822 5400.00000 0 -5025052.695 -10170295.380 -22848522.899 10 0 59822 6300.00000 0 -2174589.366 -10210671.628 -23276774.710 10 0 59822 7200.00000 0 688959.066 -10472038.875 -23253143.253 10 0 59822 8100.00000 0 3493658.290 -10947457.167 -22778140.615 10 0 59822 9000.00000 0 6170211.518 -11617461.849 -21861029.470 10 0 59822 9900.00000 0 8654596.614 -12450878.441 -20519640.988 10 0 59822 10800.00000 0 10890482.773 -13406146.413 -18780028.258 10 0 59822 11700.00000 0 12831327.526 -14433096.448 -16675961.736 10 0 59822 12600.00000 0 14442068.004 -15475106.803 -14248276.174 10 0 59822 13500.00000 0 15700337.235 -16471548.506 -11544081.214 10 0 59822 14400.00000 0 16597155.875 -17360416.882 -8615850.442 10 0 59822 15300.00000 0 17137071.422 -18081038.930 -5520406.147 10 0 59822 16200.00000 0 17337740.081 -18576742.650 -2317819.174 10 0 59822 17100.00000 0 17228969.638 -18797375.817 929755.050 10 0 59822 18000.00000 0 16851264.265 -18701567.798 4159281.653 10 0 59822 18900.00000 0 16253933.106 -18258638.616 7308069.174 10 0 59822 19800.00000 0 15492842.830 -17450074.190 10314986.280 10 0 59822 20700.00000 0 14627909.242 -16270504.826 13121648.391 10 0 59822 21600.00000 0 13720434.040 -14728144.831 15673551.121 10 0 59822 22500.00000 0 12830399.184 -12844673.699 17921128.429 10 0 59822 23400.00000 0 12013833.060 -10654562.727 19820714.922 10 0 59822 24300.00000 0 11320359.467 -8203874.062 21335393.780 10 0 59822 25200.00000 0 10791032.665 -5548581.125 22435714.089 10 0 59822 26100.00000 0 10456549.654 -2752479.389 23100263.809 10 0 59822 27000.00000 0 10335914.932 115226.606 23316087.498 10 0 59822 27900.00000 0 10435614.069 2982560.665 23078940.767 10 0 59822 28800.00000 0 10749331.043 5777527.972 22393376.434 10 0 59822 29700.00000 0 11258221.562 8430870.168 21272660.530 10 0 59822 30600.00000 0 11931731.300 10878708.709 19738519.326 10 0 59822 31500.00000 0 12728925.006 13064967.026 17820721.846 10 0 59822 32400.00000 0 13600270.957 14943471.246 15556505.350 10 0 59822 33300.00000 0 14489805.846 16479642.322 12989854.377 10 0 59822 34200.00000 0 15337588.960 17651709.326 10170646.963 10 0 59822 35100.00000 0 16082342.009 18451393.687 7153684.334 10 0 59822 36000.00000 0 16664162.821 18884036.287 3997622.907 10 0 59822 36900.00000 0 17027197.728 18968162.764 763829.675 10 0 59822 37800.00000 0 17122159.005 18734506.201 -2484816.297 10 0 59822 38700.00000 0 16908580.113 18224529.333 -5685152.307 10 0 59822 39600.00000 0 16356712.639 17488509.623 -8774965.633 10 0 59822 40500.00000 0 15448983.949 16583269.113 -11694207.588 10 0 59822 41400.00000 0 14180953.302 15569645.840 -14386163.810 10 0 59822 42300.00000 0 12561725.493 14509814.415 -16798557.457 10 0 59822 43200.00000 0 10613804.041 13464569.432 -18884563.778 10 0 59822 44100.00000 0 8372389.567 12490686.593 -20603716.461 10 0 59822 45000.00000 0 5884152.350 11638472.770 -21922688.488 10 0 59822 45900.00000 0 3205529.872 10949607.891 -22815933.031 10 0 59822 46800.00000 0 400619.828 10455368.908 -23266172.686 10 0 59822 47700.00000 0 -2461244.183 10175309.818 -23264728.328 10 0 59822 48600.00000 0 -5308134.264 10116452.475 -22811681.953 10 0 59822 49500.00000 0 -8068278.236 10273021.412 -21915870.896 10 0 59822 50400.00000 0 -10672804.772 10626733.222 -20594713.850 10 0 59822 51300.00000 0 -13058370.755 11147627.899 -18873872.165 10 0 59822 52200.00000 0 -15169562.827 11795406.961 -16786752.804 10 0 59822 53100.00000 0 -16960974.270 12521222.040 -14373862.263 10 0 59822 54000.00000 0 -18398871.891 13269838.766 -11682023.519 10 0 59822 54900.00000 0 -19462384.366 13982085.020 -8763470.650 10 0 59822 55800.00000 0 -20144163.287 14597480.527 -5674838.285 10 0 59822 56700.00000 0 -20450490.077 15056937.041 -2476065.124 10 0 59822 57600.00000 0 -20400825.024 15305415.153 770767.421 10 0 59822 58500.00000 0 -20026817.953 15294425.407 4002638.910 10 0 59822 59400.00000 0 -19370822.674 14984267.789 7156812.441 10 0 59822 60300.00000 0 -18483978.148 14345914.494 10172052.237 10 0 59822 61200.00000 0 -17423937.497 13362455.813 12989812.332 10 0 59822 62100.00000 0 -16252340.757 12030047.294 15555373.141 10 0 59822 63000.00000 0 -15032137.936 10358317.196 17818903.811 10 0 59822 63900.00000 0 -13824875.157 8370215.915 19736429.649 10 0 59822 64800.00000 0 -12688058.012 6101312.391 21270686.051 10 0 59822 65700.00000 0 -11672702.926 3598565.524 22391842.542 10 0 59822 66600.00000 0 -10821179.295 918620.625 23078083.071 10 0 59822 67500.00000 0 -10165432.883 -1874299.400 23316031.523 10 0 59822 68400.00000 0 -9725664.935 -4710821.566 23101014.254 10 0 59822 69300.00000 0 -9509522.382 -7519069.055 22437154.536 10 0 59822 70200.00000 0 -9511833.110 -10227417.136 21337296.825 10 0 59822 71100.00000 0 -9714897.430 -12767244.977 19822761.957 10 0 59822 72000.00000 0 -10089323.558 -15075569.392 17922937.513 10 0 59822 72900.00000 0 -10595372.031 -17097451.424 15674710.754 10 0 59822 73800.00000 0 -11184752.425 -18788075.781 13121754.532 10 0 59822 74700.00000 0 -11802796.589 -20114416.569 10313679.678 10 0 59822 75600.00000 0 -12390916.415 -21056420.017 7305070.014 10 0 59822 76500.00000 0 -12889241.947 -21607654.983 4154418.718 10 0 59822 77400.00000 0 -13239327.730 -21775404.380 922986.998 10 0 59822 78300.00000 0 -13386812.192 -21580194.314 -2326392.273 10 0 59822 79200.00000 0 -13283916.707 -21054781.486 -5530542.054 10 0 59822 80100.00000 0 -12891677.731 -20242642.389 -8627175.048 10 0 59822 81000.00000 0 -12181816.735 -19196028.922 -11556109.274 10 0 59822 81900.00000 0 -11138168.070 -17973673.357 -14260441.041 10 0 59822 82800.00000 0 -9757603.769 -16638240.245 -16687651.964 10 0 59822 83700.00000 0 -8050415.639 -15253633.328 -18790628.356 10 0 59822 84600.00000 0 -6040137.910 -13882271.237 -20528573.317 10 0 59822 85500.00000 0 -3762817.356 -12582446.742 -21867794.115 10 0 59823 0.00000 0 -1265761.062 -11405880.417 -22782350.199 10 0 59823 900.00000 0 1394187.883 -10395570.321 -23254550.395 10 0 59823 1800.00000 0 4152772.080 -9584028.749 -23275289.306 10 0 59823 2700.00000 0 6940755.873 -8991976.941 -22844218.752 10 0 59823 3600.00000 0 9686572.000 -8627553.100 -21969750.160 10 0 59823 4500.00000 0 12319071.062 -8486065.309 -20668888.764 10 0 59823 5400.00000 0 14770260.361 -8550298.966 -18966902.813 10 0 59823 6300.00000 0 16977919.317 -8791365.100 -16896834.045 10 0 59823 7200.00000 0 18887983.577 -9170053.483 -14498858.606 10 0 59823 8100.00000 0 20456599.527 -9638633.274 -11819510.334 10 0 59823 9000.00000 0 21651764.412 -10143025.262 -8910780.960 10 0 59823 9900.00000 0 22454484.253 -10625254.057 -5829114.273 10 0 59823 10800.00000 0 22859401.852 -11026076.789 -2634313.389 10 0 59823 11700.00000 0 22874869.122 -11287677.212 611617.909 10 0 59823 12600.00000 0 22522461.174 -11356311.277 3845677.267 10 0 59823 13500.00000 0 21835952.962 -11184792.073 7005085.894 10 0 59823 14400.00000 0 20859801.847 -10734708.661 10028506.914 10 0 59823 15300.00000 0 19647200.086 -9978284.468 12857235.979 10 0 59823 16200.00000 0 18257779.398 -8899795.963 15436340.903 10 0 59823 17100.00000 0 16755064.141 -7496490.799 17715728.165 10 0 59823 18000.00000 0 15203780.237 -5778965.589 19651115.462 10 0 59823 18900.00000 0 13667132.751 -3770986.127 21204891.626 10 0 59823 19800.00000 0 12204166.265 -1508756.114 22346847.410 10 0 59823 20700.00000 0 10867318.561 960336.431 23054763.120 10 0 59823 21600.00000 0 9700269.869 3579444.208 23314841.928 10 0 59823 22500.00000 0 8736177.501 6284386.594 23121980.542 10 0 59823 23400.00000 0 7996369.567 9006089.156 22479871.930 10 0 59823 24300.00000 0 7489552.169 11673236.313 21400937.908 10 0 59823 25200.00000 0 7211563.066 14215027.657 19906092.522 10 0 59823 26100.00000 0 7145681.875 16563923.812 18024340.312 10 0 59823 27000.00000 0 7263483.529 18658267.974 15792216.732 10 0 59823 27900.00000 0 7526198.780 20444674.132 13253080.949 10 0 59823 28800.00000 0 7886524.136 21880082.366 10456274.413 10 0 59823 29700.00000 0 8290804.455 22933395.418 7456161.210 10 0 59823 30600.00000 0 8681495.448 23586628.109 4311068.803 10 0 59823 31500.00000 0 8999801.374 23835521.533 1082150.032 10 0 59823 32400.00000 0 9188375.490 23689596.585 -2167811.058 10 0 59823 33300.00000 0 9193968.102 23171645.003 -5375625.709 10 0 59823 34200.00000 0 8969909.180 22316679.988 -8478934.582 10 0 59823 35100.00000 0 8478319.557 21170391.350 -11417424.783 10 0 59823 36000.00000 0 7691956.308 19787170.999 -14134005.469 10 0 59823 36900.00000 0 6595613.516 18227792.765 -16575918.653 10 0 59823 37800.00000 0 5187018.628 16556844.811 -18695763.422 10 0 59823 38700.00000 0 3477185.918 14840023.058 -20452413.787 10 0 59823 39600.00000 0 1490211.610 13141399.554 -21811812.617 10 0 59823 40500.00000 0 -737481.395 11520780.262 -22747626.890 10 0 59823 41400.00000 0 -3158418.297 10031262.581 -23241752.292 10 0 59823 42300.00000 0 -5715814.059 8717094.182 -23284658.095 10 0 59823 43200.00000 0 -8345710.177 7611921.802 -22875566.429 10 0 59823 44100.00000 0 -10979418.440 6737502.115 -22022462.984 10 0 59823 45000.00000 0 -13546170.844 6102927.455 -20741939.337 10 0 59823 45900.00000 0 -15975866.424 5704397.618 -19058870.051 10 0 59823 46800.00000 0 -18201801.707 5525546.208 -17005930.677 10 0 59823 47700.00000 0 -20163271.959 5538306.975 -14622965.693 10 0 59823 48600.00000 0 -21807935.742 5704282.999 -11956218.190 10 0 59823 49500.00000 0 -23093844.879 5976560.618 -9057435.705 10 0 59823 50400.00000 0 -23991055.597 6301891.334 -5982869.143 10 0 59823 51300.00000 0 -24482753.984 6623149.424 -2792183.825 10 0 59823 52200.00000 0 -24565849.007 6881961.266 452696.464 10 0 59823 53100.00000 0 -24251008.474 7021395.096 3688789.971 10 0 59823 54000.00000 0 -23562136.677 6988597.171 6853278.691 10 0 59823 54900.00000 0 -22535315.778 6737262.503 9884727.441 10 0 59823 55800.00000 0 -21217255.516 6229835.179 12724276.378 10 0 59823 56700.00000 0 -19663316.422 5439344.630 15316783.637 10 0 59823 57600.00000 0 -17935189.518 4350799.452 17611895.888 10 0 59823 58500.00000 0 -16098329.857 2962078.995 19565025.919 10 0 59823 59400.00000 0 -14219251.373 1284283.976 21138218.462 10 0 59823 60300.00000 0 -12362796.163 -658470.020 22300887.619 10 0 59823 61200.00000 0 -10589492.294 -2829808.936 23030411.789 10 0 59823 62100.00000 0 -8953110.294 -5182376.399 23312574.743 10 0 59823 63000.00000 0 -7498520.093 -7659577.861 23141844.407 10 0 59823 63900.00000 0 -6259937.635 -10197721.251 22521483.865 10 0 59823 64800.00000 0 -5259633.968 -12728466.182 21463492.286 10 0 59823 65700.00000 0 -4507160.357 -15181480.678 19988376.487 10 0 59823 66600.00000 0 -3999121.398 -17487195.399 18124757.125 10 0 59823 67500.00000 0 -3719505.137 -19579541.116 15908816.591 10 0 59823 68400.00000 0 -3640555.779 -21398555.483 13383598.748 10 0 59823 69300.00000 0 -3724151.736 -22892750.250 10598173.701 10 0 59823 70200.00000 0 -3923630.301 -24021139.879 7606683.545 10 0 59823 71100.00000 0 -4185981.239 -24754846.490 4467287.519 10 0 59823 72000.00000 0 -4454315.825 -25078213.702 1241027.388 10 0 59823 72900.00000 0 -4670505.999 -24989382.587 -2009364.503 10 0 59823 73800.00000 0 -4777880.984 -24500305.711 -5220690.698 10 0 59823 74700.00000 0 -4723866.214 -23636198.926 -8330522.938 10 0 59823 75600.00000 0 -4462451.896 -22434454.502 -11278420.592 10 0 59823 76500.00000 0 -3956385.791 -20943061.892 -14007108.857 10 0 59823 77400.00000 0 -3178996.712 -19218603.215 -16463593.250 10 0 59823 78300.00000 0 -2115570.976 -17323908.322 -18600188.565 10 0 59823 79200.00000 0 -764223.085 -15325468.346 -20375442.366 10 0 59823 80100.00000 0 863776.575 -13290716.513 -21754935.379 10 0 59823 81000.00000 0 2744231.416 -11285290.110 -22711943.862 10 0 59823 81900.00000 0 4840796.716 -9370387.774 -23227951.826 10 0 59823 82800.00000 0 7106274.157 -7600332.032 -23293003.929 10 0 59823 83700.00000 0 9484369.510 -6020437.903 -22905892.935 10 0 59823 84600.00000 0 11911841.017 -4665275.405 -22074178.697 10 0 59823 85500.00000 0 14320949.694 -3557397.294 -20814038.633 99